Regional Weather Roundup
Issued by NWS New Orleans/Baton Rouge, LA

Home | Current Version | Previous Version | Text Only | Print | Product List | Glossary On
Versions: 1 2 3 4 5 6 7 8 9 10 11 12 13 14 15 16 17 18 19 20 21 22 23 24 25 26 27 28 29 30 31 32 33 34 35 36 37 38 39 40 41 42 43 44 45 46 47 48 49 50
000
ASUS44 KLIX 232010
RWRLIX
NEW ORLEANS REGIONAL WEATHER ROUNDUP
NATIONAL WEATHER SERVICE NEW ORLEANS LA
300 PM CDT SAT AUG 23 2014

NOTE: "FAIR" INDICATES FEW OR NO CLOUDS BELOW 12,000 FEET WITH NO
      SIGNIFICANT WEATHER AND/OR OBSTRUCTIONS TO VISIBILITY.
      SKY/WX - SKY CONDITION AND SIGNIFICANT WEATHER.
      TMP - AIR TEMPERATURE.     DP    - DEWPOINT TEMPERATURE.
      RH  - RELATIVE HUMIDITY.   PRES  - PRESSURE.
      HI  - HEAT INDEX.          WCI   - WIND CHILL INDEX.

*  THESE STATIONS ARE NOT NWS OR FAA STATIONS AND ARE NOT UNDER
   NWS QUALITY CONTROL.

LAZ038-040-048-061>063-065>067-069-232100-
SOUTHEAST LOUISIANA

CITY           SKY/WX    TMP DP  RH WIND       PRES   REMARKS
N.O. AUDUBON     N/A     99  76  47 MISG        N/A  HX 112
N.O. INTL ARPT MOSUNNY   95  70  44 VRB6      29.98F HX 101
N.O. LAKEFRONT SUNNY     90  77  65 NW8       29.98F HX 103
N.O. DOWNTOWN*   N/A     97  70  41 N6        29.98F HX 103
SLIDELL        MOSUNNY   96  69  41 VRB3      29.96F HX 102
BATON ROUGE    MOSUNNY   94  73  50 NW7       29.99F HX 103
BOOTHVILLE     SUNNY     93  76  57 VRB5      29.99F HX 105
BELLE CHASSE   PTSUNNY   94  71  47 CALM      29.97F HX 101
BOGALUSA*        N/A     96  69  40 CALM      29.99F HX 102
GALLIANO*      NOT AVBL
NEW ROADS*       N/A     92  74  56 N3        29.99F HX 101
GONZALES*      MOCLDY    91  75  60 N3        29.98F HX 102
HAMMOND*       PTSUNNY   99  64  32 CALM      29.99F HX 101
HOUMA*         MOSUNNY   97  66  36 N3        29.98F HX 100
PORT FOURCHON* PTCLDY    91  72  52 NW3       30.00F HX  98

$$

MSZ070-080>082-232100-
SOUTHERN MISSISSIPPI

CITY           SKY/WX    TMP DP  RH WIND       PRES   REMARKS
MCCOMB         CLOUDY    92  70  48 NW7       30.00F HX  97
GULFPORT       MOSUNNY   94  73  50 S7        29.95F HX 103
BILOXI         MOSUNNY   97  74  48 SW12      29.96F HX 107
PASCAGOULA     PTSUNNY   94  73  50 CALM      29.96F HX 103
STENNIS ARPT*  PTSUNNY  N/A N/A N/A S5        29.97F

$$

COASTAL OBSERVATIONS
LAKE AND NEARSHORE STATIONS

STATION/POSITION TIME  TEMP    WIND        PRES    WAVE
                       AIR SEA DIR/SP/G            HT/PER
                 (UTC) (F)     (DEG/KT/KT) (MB)    (FT/S)
PASCAGOULA       2000   87     310/  3/  7 1014.7
WAVELAND YACHT   2000   90     160/  7/ 10 1014.3
GRAND ISLE       2000   91 90  330/  2/  4 1016.2
SOUTHWEST PASS   2000   97 89  330/  6/  9 1015.8
NEW CANAL        2000   90 86  320/  3/  5 1015.8
SHELL BEACH      2000   84 85  160/  5/  7 1015.1

OFFSHORE STATIONS

STATION/POSITION TIME  TEMP    WIND        PRES    WAVE
                       AIR SEA DIR/SP/G            HT/PER
                 (UTC) (F)     (DEG/KT/KT) (MB)    (FT/S)
64 S DAUPHIN ISL 1858   87 91  340/  4/  6 1015.2

$$



USA.gov is the U.S. government's official web portal to all federal, state and local government web resources and services.